Flag for Morocco Weather past 2 weeks in Marrakech, Morocco

Now
46 °F

Clear.


Feels Like: 44 °F
Forecast: N/A
Wind: 5 mph from East

Location: Marrakech Airport

Current Time: Jan 29, 2015 at 11:26:45 PM

Latest Report: Jan 29, 2015 at 11:00 PM


Visibility: 4 mi

Pressure: 30.24 "Hg

Humidity: 93%

Dew point: 45 °F

Location of MarrakechLocation

Historic Weather in Marrakech — Graph

°F

Marrakech temperature yesterday

Maximum temperature yesterday: 66 °F (at 3:30 PM)
Minimum temperature yesterday: 41 °F (at 5:00 AM)
Average temperature yesterday: 52 °F

Past Weeks' High & Low Weather Summary

 TemperatureHumidityPressure
High72 °F (Jan 15, 1:30 PM)100% (Jan 14, 11:30 PM)30.39 "Hg (Jan 14, 11:30 PM)
Low37 °F (Jan 20, 7:30 AM)31% (Jan 15, 3:00 PM)29.98 "Hg (Jan 19, 4:00 AM)
Average51 °F81%30.21 "Hg
* Reported Jan 14 10:00 PM — Jan 29 10:30 PM, Marrakech, Weather by CustomWeather, © 2014

Note: Actual official high and low records may vary slightly from our data, if they occured in-between our weather recording intervals... More about our weather records

Advertising

Marrakech weather history for previous 24 hours

 ConditionsComfort  
Time TempWeatherWind HumidityBarometerVisibility
10:30 PM
Jan 29
48 °FClear.5 mph94%30.24 "Hg4 mi
10:00 PM48 °FClear.7 mph94%30.24 "Hg4 mi
9:30 PM48 °FClear.8 mph94%30.24 "Hg10 mi
9:00 PM48 °FClear.7 mph94%30.24 "Hg10 mi
8:30 PM50 °FClear.6 mph88%30.24 "Hg10 mi
8:00 PM52 °FClear.No wind82%30.21 "Hg10 mi
7:30 PM52 °FClear.3 mph88%30.21 "Hg10 mi
7:00 PM54 °FClear.2 mph82%30.21 "Hg10 mi
6:30 PM54 °FClear.2 mph82%30.21 "Hg10 mi
6:00 PM57 °FClear.No wind72%30.21 "Hg10 mi
5:30 PM57 °FClear.No wind77%30.21 "Hg10 mi
5:00 PM57 °FPassing clouds.5 mph72%30.21 "HgN/A
4:30 PM57 °FScattered clouds.6 mph72%30.18 "HgN/A
4:00 PM57 °FScattered clouds.3 mph77%30.18 "Hg6 mi
3:30 PM57 °FScattered clouds.3 mph77%30.18 "Hg4 mi
3:00 PM57 °FScattered clouds.3 mph77%30.21 "Hg4 mi
2:30 PM55 °FPartly sunny.3 mph82%30.21 "Hg5 mi
2:00 PM55 °FBroken clouds.1 mph82%30.21 "Hg6 mi
1:30 PM54 °FBroken clouds.2 mph82%30.24 "Hg4 mi
1:00 PM52 °FScattered clouds.5 mph88%30.27 "Hg3 mi
12:30 PM50 °FScattered clouds.3 mph94%30.27 "Hg3 mi
12:00 PM50 °FScattered clouds.5 mph94%30.30 "Hg3 mi
11:00 AM48 °FFog.5 mph100%30.27 "Hg2 mi
10:30 AM48 °FFog.2 mph100%30.27 "Hg2 mi
10:00 AM48 °FFog.No wind100%30.27 "Hg2 mi
9:30 AM46 °FFog.No wind100%30.27 "Hg2 mi
9:00 AM46 °FFog.5 mph100%30.27 "Hg2 mi
8:30 AM46 °FFog.1 mph100%30.27 "Hg1 mi
8:00 AM45 °FFog.1 mph100%30.27 "Hg2 mi
7:30 AM43 °FFog.2 mph100%30.24 "Hg2 mi
7:00 AM43 °FFog.3 mph100%30.24 "Hg1 mi
6:30 AM43 °FFog.2 mph100%30.21 "Hg1 mi
6:00 AM41 °FFog.5 mph100%30.21 "Hg2 mi
5:30 AM43 °FFog.2 mph100%30.21 "Hg2 mi
5:00 AM45 °FClear.No wind100%30.21 "Hg4 mi
4:30 AM45 °FClear.No wind100%30.21 "Hg5 mi
4:00 AM45 °FClear.No wind100%30.21 "Hg10 mi
3:30 AM45 °FClear.3 mph100%30.21 "Hg6 mi
3:00 AM45 °FClear.6 mph100%30.21 "Hg6 mi
2:30 AM45 °FClear.5 mph100%30.21 "Hg10 mi
2:00 AM45 °FClear.5 mph100%30.21 "Hg10 mi
1:30 AM45 °FQuite cool.6 mph100%30.24 "HgN/A
1:00 AM46 °FClear.7 mph93%30.24 "Hg10 mi
12:30 AM46 °FClear.3 mph93%30.24 "Hg10 mi
12:00 AM46 °FClear.6 mph93%30.24 "Hg10 mi
11:30 PM
Jan 28
46 °FClear.7 mph93%30.27 "Hg10 mi
11:00 PM48 °FClear.6 mph87%30.27 "Hg10 mi
Weather by CustomWeather, © 2014

See weather overviewHow to use our weather pages